Regional Weather Roundup
Issued by NWS

Home | Current Version | Previous Version | Graphics & Text | Print | Product List | Glossary On
Versions: 1 2 3 4 5 6 7 8 9 10 11 12 13 14 15 16 17 18 19 20 21 22 23 24 25 26 27 28 29 30 31 32 33 34 35 36 37 38 39 40 41 42 43 44 45 46 47 48 49 50
000
ASUS43 KDTX 311201
RWRMI
MICHIGAN HOURLY REGIONAL WEATHER ROUNDUP
NATIONAL WEATHER SERVICE DETROIT/PONTIAC MI
800 AM EDT THU JUL 31 2014

NOTE: "FAIR" INDICATES FEW OR NO CLOUDS BELOW 12,000 FEET WITH NO
SIGNIFICANT WEATHER AND/OR OBSTRUCTION TO VISIBILITY.

MIZ047>049-052>055-059>063-066>070-074>076-081>083-311300-
SOUTHEAST LOWER MICHIGAN

CITY           SKY/WX    TMP DP  RH WIND       PRES   REMARKS
ADRIAN           N/A     54  53  97 CALM      30.05R
6HR MIN TEMP:  49; 6HR MAX TEMP:  58;

ALMA           SUNNY     56  52  88 S5        30.01S
ANN ARBOR      PTSUNNY   53  51  93 CALM      30.04R
BAD AXE        CLOUDY    56  56 100 CALM      30.00R
6HR MIN TEMP:  49; 6HR MAX TEMP:  56;

CARO           CLOUDY    57  57 100 SW5       30.00S
DETROIT CITY   SUNNY     60  51  72 CALM      30.02R
6HR MIN TEMP:  57; 6HR MAX TEMP:  64;

DETROIT        PTSUNNY   58  52  80 CALM      30.04R
6HR MIN TEMP:  54; 6HR MAX TEMP:  60;

FLINT          CLOUDY    57  51  80 W5        30.03R
6HR MIN TEMP:  53; 6HR MAX TEMP:  58;

GROSSE ILE     SUNNY     57  54  88 W6        30.03R
HILLSDALE      SUNNY     59  53  80 SW3       30.05R
6HR MIN TEMP:  49; 6HR MAX TEMP:  59;

HOWELL         MOSUNNY   54  51  92 CALM      30.03S

CITY           SKY/WX    TMP DP  RH WIND       PRES   REMARKS
JACKSON        SUNNY     56  52  86 SW3       30.04R
6HR MIN TEMP:  50; 6HR MAX TEMP:  56;

LAMBERTVILLE   SUNNY     55  54  94 CALM      30.05R
LANSING        SUNNY     57  51  80 SW7       30.02S
6HR MIN TEMP:  51; 6HR MAX TEMP:  57;

LAPEER         CLOUDY    56  51  84 CALM      30.03R
MASON          PTSUNNY   55  52  89 CALM      30.03S
MONROE         SUNNY     57  55  94 CALM      30.03R
MT. CLEMENS    SUNNY     58  54  85 W7        30.01R
6HR MIN TEMP:  54; 6HR MAX TEMP:  61;

PONTIAC        PTSUNNY   57  50  77 W6        30.02R
6HR MIN TEMP:  53; 6HR MAX TEMP:  59;

PORT HOPE        N/A     58  55  90 SW5       29.97S
6HR MIN TEMP:  55; 6HR MAX TEMP:  61;

PORT HURON     CLOUDY    55  55 100 CALM      30.01R
TRI CITIES     PTSUNNY   57  53  86 S5        30.01R
6HR MIN TEMP:  56; 6HR MAX TEMP:  59;

TROY           MOSUNNY   58  51  77 W5        30.03S
SAGINAW HB     PTSUNNY   55  55 100 S5        30.00S
$$
MIZ043>046-050>051-056>058-064>065-071>073-077>080-311300-
SOUTHWEST LOWER MICHIGAN

CITY           SKY/WX    TMP DP  RH WIND       PRES   REMARKS
BATTLE CREEK   SUNNY     59  51  75 SW6       30.03S
6HR MIN TEMP:  54; 6HR MAX TEMP:  59;

BENTON HARBOR  MOSUNNY   58  56  93 S3        30.02S
6HR MIN TEMP:  51; 6HR MAX TEMP:  58;

BIG RAPIDS     MOSUNNY   53  53 100 S6        29.99R
6HR MIN TEMP:  50; 6HR MAX TEMP:  54;

COLDWATER      SUNNY     58  55  91 CALM      30.04S
6HR MIN TEMP:  52; 6HR MAX TEMP:  58;

FREMONT        FOG       57  57 100 CALM      30.00R VSB<1/4
6HR MIN TEMP:  50; 6HR MAX TEMP:  57;

HOLLAND        CLOUDY    65  61  87 SW9       30.02R
6HR MIN TEMP:  54; 6HR MAX TEMP:  65;

GRAND RAPIDS   MOSUNNY   59  56  89 SW6       30.02R
6HR MIN TEMP:  55; 6HR MAX TEMP:  59;

IONIA          FAIR      56  50  79 SW3       30.01S
KALAMAZOO      SUNNY     59  53  80 SW6       30.04R
6HR MIN TEMP:  52; 6HR MAX TEMP:  59;

LUDINGTON      SUNNY     57  56  97 W3        29.98S
6HR MIN TEMP:  55; 6HR MAX TEMP:  59;

MARSHALL       SUNNY     55  53  92 CALM      30.03S
MOUNT PLEASANT MOSUNNY   57  51  81 SW5       29.98S
6HR MIN TEMP:  54; 6HR MAX TEMP:  57;

MUSKEGON       SUNNY     61  58  90 SW5       30.00S FOG
6HR MIN TEMP:  57; 6HR MAX TEMP:  61;

SOUTH HAVEN    PTSUNNY   59  58  96 SW5       30.02S
$$
MIZ016>042-311300-
NORTHERN LOWER MICHIGAN

CITY           SKY/WX    TMP DP  RH WIND       PRES   REMARKS
BEAVER ISLAND  SUNNY     54  54 100 CALM      29.95R
6HR MIN TEMP:  48; 6HR MAX TEMP:  54;

BELLAIRE       SUNNY     54  53  94 CALM      29.96R
6HR MIN TEMP:  48; 6HR MAX TEMP:  56;

CADILLAC       SUNNY     54  51  92 CALM      29.98S
CHARLEVOIX     SUNNY     59  58  96 SW6       29.97S
6HR MIN TEMP:  54; 6HR MAX TEMP:  59;

FRANKFORT      SUNNY     54  51  90 CALM      29.97R
GAYLORD        MOSUNNY   52  49  89 SW5       29.97R
6HR MIN TEMP:  50; 6HR MAX TEMP:  56;

GRAYLING       MOSUNNY   54  53  96 CALM      29.97
6HR MIN TEMP:  49; 6HR MAX TEMP:  56;

HARBOR SPRINGS CLOUDY    58  54  86 SW5       29.95S
HOUGHTON LAKE  SUNNY     57  50  77 SW7       29.98R
6HR MIN TEMP:  51; 6HR MAX TEMP:  58; 6HR PCP: TRACE;

MANISTEE       SUNNY     50  46  87 CALM      29.98S
OSCODA         CLOUDY    57  56  97 SW3       29.96S
PELLSTON       SUNNY     55  52  89 CALM      29.95S
6HR MIN TEMP:  46; 6HR MAX TEMP:  55;

ROGERS CITY    MOSUNNY   56  55  94 SW7       29.95F
TRAVERSE CITY  MOSUNNY   57  51  80 CALM      29.96R
6HR MIN TEMP:  53; 6HR MAX TEMP:  59;

$$
MIZ007>008-015-311300-
EASTERN UPPER MICHIGAN

CITY           SKY/WX    TMP DP  RH WIND       PRES   REMARKS
KINROSS        CLOUDY    55  54  94 SW3       29.92F
6HR MIN TEMP:  54; 6HR MAX TEMP:  55;

MACKINAC ISLAN MOSUNNY   58  58  98 SW5       29.93F
6HR MIN TEMP:  54; 6HR MAX TEMP:  58;

NEWBERRY       CLOUDY    53  52  98 SW5       29.93R FOG
S. S. MARIE    CLOUDY    55  53  93 CALM      29.92S
6HR MIN TEMP:  53; 6HR MAX TEMP:  55; 6HR PCP: TRACE;

$$
MIZ004>006-011>014-085-311300-
CENTRAL UPPER MICHIGAN

CITY           SKY/WX    TMP DP  RH WIND       PRES   REMARKS
MANISTIQUE     MOSUNNY   53  52  98 CALM      29.94R
ESCANABA       SUNNY     52  48  87 CALM      29.94S
6HR MIN TEMP:  45; 6HR MAX TEMP:  52;

MENOMINEE      MOSUNNY   54  52  94 CALM      29.95S
6HR MIN TEMP:  52; 6HR MAX TEMP:  57;

SAWYER-GWINN   SUNNY     52  50  93 CALM      29.94S
$$
MIZ001>003-009>011-084-311300-
WESTERN UPPER MICHIGAN

CITY           SKY/WX    TMP DP  RH WIND       PRES   REMARKS
IRON MOUNTAIN  SUNNY     53  51  93 CALM      29.95S
6HR MIN TEMP:  47; 6HR MAX TEMP:  54;

HOUGHTON       SUNNY     57  54  89 NW10      29.92S
6HR MIN TEMP:  56; 6HR MAX TEMP:  59;

COPPER HARBOR    N/A     60  54  80 CALM      29.91S
6HR MIN TEMP:  56; 6HR MAX TEMP:  61;

$$

ABBREVIATIONS USED IN REMARKS
   TC - TEMPERATURE IN CELSIUS
  WCI - WIND CHILL INDEX
   HX - HEAT INDEX
  VSB - VISIBILITY



USA.gov is the U.S. government's official web portal to all federal, state and local government web resources and services.